Westfield, MA

2:16 AM EDT on May 24, 2017 (GMT -0400)
Barnes Municipal

Weather History for KBAF - June, 2013

Change the Weather History Date:

Friday, June 14, 2013

  Actual Average Record
Temperature  
Mean Temperature 64 °F -  
Max Temperature 77 °F 74 °F 89 °F (2005)
Min Temperature 51 °F 53 °F 47 °F (1974)
Degree Days  
Heating Degree Days 1    
Growing Degree Days 14 (Base 50)    
Moisture  
Dew Point 52 °F    
Average Humidity 77    
Maximum Humidity 97    
Minimum Humidity 37    
Precipitation  
Precipitation 0.59 in - - ()
Sea Level Pressure  
Sea Level Pressure 29.73 in    
Wind  
Wind Speed 9 mph (North)    
Max Wind Speed 13 mph    
Max Gust Speed 22 mph    
Visibility 9 miles    
Events Rain    
Averages and records for this station are not official NWS values.
T = Trace of Precipitation, MM = Missing Value Source: NWS Daily Summary

Daily Weather History Graph

Daily Weather History Graph

Search for Another Location

Airport or City:

Trip Planner

Search our weather history database for the weather conditions in past years. The results will help you decide how hot, cold, wet, or windy it might be!

Date:

Astronomy

Jun. 14, 2013 Rise Set
Actual Time 5:14 AM EDT 8:28 PM EDT
Civil Twilight 4:39 AM EDT 9:03 PM EDT
Nautical Twilight 3:55 AM EDT 9:47 PM EDT
Astronomical Twilight 3:01 AM EDT 10:41 PM EDT
Moon 10:51 AM EDT (6/14) 11:57 PM EDT (6/14)
Length of Visible Light 16h 23m
Length of Day
15h 14m
Waxing Crescent, 30% of the Moon is Illuminated
Jun 14
Waxing Crescent
Jun 16
First Quarter
Jun 23
Full
Jun 30
Last Quarter
Jul 8
New

Hourly Weather History & Observations

Time (EDT) Temp. Dew Point Humidity Pressure Visibility Wind Dir Wind Speed Gust Speed Precip Events Conditions
12:13 AM 51.8 °F 50.0 °F 94% 29.66 in 6.0 mi North 11.5 mph - 0.05 in Rain Rain
12:53 AM 52.0 °F 50.0 °F 93% 29.65 in 7.0 mi NNE 12.7 mph 21.9 mph 0.11 in Rain Rain
1:07 AM 51.8 °F 48.2 °F 88% 29.64 in 6.0 mi NNE 11.5 mph 21.9 mph 0.03 in Rain Rain
1:27 AM 51.8 °F 50.0 °F 94% 29.65 in 6.0 mi NNE 11.5 mph - 0.06 in Rain Rain
1:48 AM 51.8 °F 50.0 °F 94% 29.66 in 7.0 mi North 11.5 mph - 0.09 in Rain Rain
1:53 AM 52.0 °F 48.9 °F 89% 29.66 in 7.0 mi North 11.5 mph 18.4 mph 0.10 in Rain Rain
2:53 AM 52.0 °F 50.0 °F 93% 29.66 in 10.0 mi North 9.2 mph - 0.05 in Rain Light Rain
3:53 AM 52.0 °F 48.9 °F 89% 29.67 in 10.0 mi North 10.4 mph - 0.04 in Rain Light Rain
4:53 AM 52.0 °F 50.0 °F 93% 29.69 in 10.0 mi North 10.4 mph - 0.08 in Rain Light Rain
5:53 AM 52.0 °F 50.0 °F 93% 29.70 in 9.0 mi North 5.8 mph - 0.09 in Rain Rain
6:53 AM 52.0 °F 50.0 °F 93% 29.70 in 9.0 mi North 9.2 mph - 0.11 in Rain Light Rain
7:53 AM 53.1 °F 51.1 °F 93% 29.73 in 10.0 mi NNW 8.1 mph - 0.01 in Rain Light Rain
8:53 AM 55.9 °F 52.0 °F 87% 29.73 in 10.0 mi NNE 5.8 mph - 0.00 in   Overcast
9:53 AM 59.0 °F 52.0 °F 78% 29.74 in 10.0 mi North 6.9 mph - N/A   Overcast
10:53 AM 61.0 °F 51.1 °F 70% 29.76 in 10.0 mi NE 6.9 mph - N/A   Mostly Cloudy
11:54 AM 64.4 °F 51.8 °F 64% 29.77 in 10.0 mi NE 3.5 mph - N/A   Clear
12:04 PM 64.4 °F 51.8 °F 64% 29.77 in 10.0 mi NE 6.9 mph - N/A   Mostly Cloudy
12:53 PM 66.9 °F 51.1 °F 57% 29.75 in 10.0 mi Variable 3.5 mph - N/A   Scattered Clouds
1:53 PM 71.1 °F 53.1 °F 53% 29.75 in 10.0 mi Variable 5.8 mph - N/A   Clear
2:53 PM 72.0 °F 50.0 °F 46% 29.74 in 10.0 mi ENE 6.9 mph - N/A   Scattered Clouds
3:53 PM 75.0 °F 48.9 °F 40% 29.74 in 10.0 mi Variable 4.6 mph - N/A   Clear
4:53 PM 77.0 °F 48.9 °F 37% 29.73 in 10.0 mi North 3.5 mph - N/A   Clear
5:53 PM 72.0 °F 54.0 °F 53% 29.75 in 10.0 mi West 11.5 mph - N/A   Scattered Clouds
6:53 PM 69.1 °F 55.0 °F 61% 29.75 in 10.0 mi Calm Calm - 0.00 in   Mostly Cloudy
7:53 PM 68.0 °F 55.9 °F 65% 29.77 in 10.0 mi WSW 3.5 mph - N/A   Mostly Cloudy
8:53 PM 61.0 °F 57.0 °F 87% 29.78 in 10.0 mi Calm Calm - N/A   Clear
9:53 PM 57.9 °F 57.0 °F 97% 29.81 in 7.0 mi Calm Calm - N/A   Clear
10:53 PM 59.0 °F 55.0 °F 87% 29.81 in 10.0 mi NNE 4.6 mph - N/A   Clear
11:53 PM 62.1 °F 54.0 °F 75% 29.83 in 10.0 mi NW 4.6 mph - N/A   Clear